| time (UTC) | temp F | wind direction | speed MPH | gust MPH | rain 1hr in | rain 24hr in | rain mn in | humidity % | barometer mb |
| 20260508060243 | 55 | 327 | 2.0 | 4.0 | 0.00 | 0.00 | 0.00 | 90 | 1014.3 |
| 20260508055742 | 55 | 338 | 3.0 | 4.0 | 0.00 | 0.00 | 0.00 | 91 | 1014.2 |
| 20260508055255 | 55 | 355 | 2.0 | 4.0 | 0.00 | 0.00 | 0.00 | 92 | 1014.2 |
| 20260508054734 | 55 | 329 | 3.0 | 4.0 | 0.00 | 0.00 | 0.00 | 93 | 1014.1 |
| 20260508054235 | 55 | 11 | 3.0 | 4.0 | 0.00 | 0.00 | 0.00 | 93 | 1014.2 |
| 20260508053752 | 54 | 27 | 1.0 | 3.0 | 0.00 | 0.00 | 0.00 | 94 | 1014.1 |
| 20260508053231 | 54 | 27 | 1.0 | 5.0 | 0.00 | 0.00 | 0.00 | 94 | 1014.0 |
| 20260508052727 | 54 | 27 | 2.0 | 6.0 | 0.00 | 0.00 | 0.00 | 94 | 1014.0 |
| 20260508052225 | 53 | 15 | 4.0 | 7.0 | 0.00 | 0.00 | 0.00 | 94 | 1014.0 |
| 20260508051755 | 53 | 344 | 2.0 | 5.0 | 0.00 | 0.00 | 0.00 | 94 | 1013.9 |
| 20260508051231 | 52 | 14 | 3.0 | 5.0 | 0.00 | 0.00 | 0.00 | 94 | 1013.8 |
| 20260508050729 | 51 | 9 | 2.0 | 6.0 | 0.00 | 0.00 | 0.00 | 94 | 1013.8 |
| 20260508050225 | 50 | 330 | 3.0 | 6.0 | 0.00 | 0.00 | 0.00 | 94 | 1013.8 |
| 20260508045724 | 49 | 332 | 2.0 | 4.0 | 0.00 | 0.00 | 0.00 | 94 | 1013.8 |
| 20260508045242 | 48 | 328 | 2.0 | 3.0 | 0.00 | 0.00 | 0.00 | 93 | 1013.6 |
| 20260508044813 | 48 | 327 | 1.0 | 2.0 | 0.00 | 0.00 | 0.00 | 92 | 1013.7 |
| 20260508044233 | 48 | 327 | 0.0 | 1.0 | 0.00 | 0.00 | 0.00 | 92 | 1013.7 |
| 20260508043733 | 48 | 327 | 0.0 | 1.0 | 0.00 | 0.00 | 0.00 | 92 | 1013.7 |
| 20260508043233 | 48 | 327 | 0.0 | 2.0 | 0.00 | 0.00 | 0.00 | 92 | 1013.7 |
| 20260508042732 | 48 | 327 | 0.0 | 3.0 | 0.00 | 0.00 | 0.00 | 92 | 1013.6 |
| 20260508042251 | 48 | 327 | 2.0 | 4.0 | 0.00 | 0.00 | 0.00 | 93 | 1013.5 |
| 20260508041731 | 48 | 327 | 2.0 | 4.0 | 0.00 | 0.00 | 0.00 | 93 | 1013.5 |
| 20260508041247 | 48 | 326 | 2.0 | 4.0 | 0.00 | 0.00 | 0.00 | 92 | 1013.5 |
| 20260508040725 | 48 | 326 | 1.0 | 2.0 | 0.00 | 0.00 | 0.00 | 92 | 1013.4 |
| 20260508040224 | 48 | 326 | 1.0 | 3.0 | 0.00 | 0.00 | 0.00 | 92 | 1013.4 |
| 20260508035723 | 48 | 326 | 1.0 | 4.0 | 0.00 | 0.00 | 0.00 | 92 | 1013.4 |
| 20260508035252 | 47 | 326 | 2.0 | 4.0 | 0.00 | 0.00 | 0.00 | 92 | 1013.5 |
| 20260508034732 | 47 | 312 | 1.0 | 2.0 | 0.00 | 0.00 | 0.00 | 92 | 1013.4 |
| 20260508034250 | 47 | 312 | 0.0 | 0.0 | 0.00 | 0.00 | 0.00 | 92 | 1013.5 |
| 20260508033750 | 48 | 312 | 0.0 | 2.0 | 0.00 | 0.00 | 0.00 | 92 | 1013.5 |
| 20260508033249 | 47 | 312 | 0.0 | 2.0 | 0.00 | 0.00 | 0.00 | 92 | 1013.5 |
| 20260508032743 | 47 | 312 | 0.0 | 2.0 | 0.00 | 0.00 | 0.00 | 92 | 1013.5 |
| 20260508032242 | 47 | 312 | 0.0 | 2.0 | 0.00 | 0.00 | 0.00 | 92 | 1013.5 |
| 20260508031739 | 47 | 312 | 0.0 | 1.0 | 0.00 | 0.00 | 0.00 | 92 | 1013.4 |
| 20260508031238 | 48 | 312 | 0.0 | 2.0 | 0.00 | 0.00 | 0.00 | 92 | 1013.4 |
| 20260508030734 | 48 | 312 | 1.0 | 2.0 | 0.00 | 0.00 | 0.00 | 92 | 1013.4 |
| 20260508030233 | 48 | 312 | 1.0 | 2.0 | 0.00 | 0.00 | 0.00 | 92 | 1013.4 |
| 20260508025729 | 48 | 312 | 1.0 | 2.0 | 0.00 | 0.00 | 0.00 | 92 | 1013.3 |
| 20260508025230 | 48 | 312 | 1.0 | 3.0 | 0.00 | 0.00 | 0.00 | 92 | 1013.3 |
| 20260508024725 | 48 | 312 | 1.0 | 3.0 | 0.00 | 0.00 | 0.00 | 92 | 1013.3 |
| 20260508024226 | 48 | 311 | 0.0 | 2.0 | 0.00 | 0.00 | 0.00 | 92 | 1013.2 |
| 20260508023727 | 48 | 311 | 0.0 | 3.0 | 0.00 | 0.00 | 0.00 | 92 | 1013.3 |
| 20260508023247 | 47 | 311 | 3.0 | 3.0 | 0.00 | 0.00 | 0.00 | 91 | 1013.2 |
| 20260508022724 | 48 | 338 | 0.0 | 0.0 | 0.00 | 0.00 | 0.00 | 91 | 1013.3 |
| 20260508022248 | 48 | 338 | 0.0 | 0.0 | 0.00 | 0.00 | 0.00 | 91 | 1013.1 |
| 20260508021740 | 48 | 338 | 0.0 | 0.0 | 0.00 | 0.00 | 0.00 | 91 | 1013.1 |
| 20260508021250 | 48 | 338 | 0.0 | 0.0 | 0.00 | 0.00 | 0.00 | 91 | 1013.2 |
| 20260508020748 | 48 | 338 | 0.0 | 0.0 | 0.00 | 0.00 | 0.00 | 91 | 1013.2 |
| 20260508020238 | 48 | 338 | 0.0 | 0.0 | 0.00 | 0.00 | 0.00 | 91 | 1013.2 |
| 20260508015737 | 48 | 338 | 0.0 | 2.0 | 0.00 | 0.00 | 0.00 | 91 | 1013.3 |
| 20260508015237 | 48 | 338 | 0.0 | 3.0 | 0.00 | 0.00 | 0.00 | 91 | 1013.2 |
| 20260508014746 | 48 | 338 | 2.0 | 3.0 | 0.00 | 0.00 | 0.00 | 91 | 1013.2 |
| 20260508014228 | 48 | 338 | 1.0 | 2.0 | 0.00 | 0.00 | 0.00 | 91 | 1013.2 |
| 20260508013727 | 48 | 338 | 1.0 | 3.0 | 0.00 | 0.00 | 0.00 | 91 | 1013.2 |
| 20260508013246 | 48 | 338 | 1.0 | 3.0 | 0.00 | 0.00 | 0.00 | 91 | 1013.1 |
| 20260508012801 | 48 | 340 | 2.0 | 3.0 | 0.00 | 0.00 | 0.00 | 91 | 1013.1 |
| 20260508012308 | 48 | 340 | 1.0 | 2.0 | 0.00 | 0.00 | 0.00 | 91 | 1013.1 |
| 20260508011729 | 49 | 340 | 0.0 | 2.0 | 0.00 | 0.00 | 0.00 | 91 | 1013.1 |
| 20260508011247 | 49 | 340 | 0.0 | 3.0 | 0.00 | 0.00 | 0.00 | 91 | 1013.1 |
| 20260508010727 | 49 | 340 | 2.0 | 3.0 | 0.00 | 0.00 | 0.00 | 91 | 1013.0 |
| 20260508010227 | 48 | 338 | 2.0 | 3.0 | 0.00 | 0.00 | 0.00 | 91 | 1013.2 |
| 20260508005742 | 48 | 333 | 2.0 | 3.0 | 0.00 | 0.00 | 0.00 | 91 | 1013.2 |
| 20260508005305 | 48 | 332 | 2.0 | 3.0 | 0.00 | 0.00 | 0.00 | 91 | 1013.2 |
| 20260508004741 | 48 | 332 | 0.0 | 2.0 | 0.00 | 0.00 | 0.00 | 91 | 1013.2 |
| 20260508004235 | 49 | 332 | 1.0 | 2.0 | 0.00 | 0.00 | 0.00 | 91 | 1013.3 |
| 20260508003734 | 49 | 332 | 0.0 | 0.0 | 0.00 | 0.00 | 0.00 | 91 | 1013.3 |
| 20260508003234 | 49 | 332 | 0.0 | 2.0 | 0.00 | 0.00 | 0.00 | 91 | 1013.3 |
| 20260508002736 | 49 | 332 | 0.0 | 3.0 | 0.00 | 0.00 | 0.00 | 90 | 1013.3 |
| 20260508002233 | 49 | 332 | 1.0 | 3.0 | 0.00 | 0.00 | 0.00 | 91 | 1013.4 |
| 20260508001750 | 49 | 329 | 2.0 | 2.0 | 0.00 | 0.00 | 0.00 | 91 | 1013.3 |
| 20260508001230 | 49 | 329 | 1.0 | 3.0 | 0.00 | 0.00 | 0.00 | 90 | 1013.3 |
| 20260508000727 | 49 | 19 | 0.0 | 0.0 | 0.00 | 0.00 | 0.00 | 90 | 1013.4 |
| 20260508000234 | 49 | 19 | 0.0 | 0.0 | 0.00 | 0.00 | 0.00 | 90 | 1013.3 |
| 20260507235750 | 49 | 19 | 0.0 | 0.0 | 0.00 | 0.08 | 0.00 | 90 | 1013.3 |
| 20260507235251 | 49 | 28 | 0.0 | 0.0 | 0.00 | 0.08 | 0.00 | 90 | 1013.2 |
| 20260507233726 | 49 | 21 | 0.0 | 0.0 | 0.00 | 0.08 | 0.00 | 90 | 1013.2 |
| 20260507233252 | 49 | 20 | 0.0 | 0.0 | 0.00 | 0.08 | 0.00 | 90 | 1013.2 |
| 20260507232750 | 49 | 20 | 0.0 | 0.0 | 0.00 | 0.08 | 0.00 | 90 | 1013.1 |
| 20260507232248 | 50 | 20 | 0.0 | 0.0 | 0.00 | 0.08 | 0.00 | 90 | 1013.3 |
| 20260507231727 | 50 | 20 | 0.0 | 1.0 | 0.00 | 0.08 | 0.00 | 90 | 1013.3 |
| 20260507231227 | 50 | 19 | 0.0 | 2.0 | 0.00 | 0.08 | 0.00 | 90 | 1013.3 |
| 20260507230803 | 50 | 19 | 1.0 | 2.0 | 0.00 | 0.08 | 0.00 | 90 | 1013.3 |
| 20260507230251 | 50 | 19 | 0.0 | 0.0 | 0.00 | 0.08 | 0.00 | 90 | 1013.4 |
| 20260507225809 | 50 | 19 | 0.0 | 0.0 | 0.00 | 0.16 | 0.00 | 89 | 1013.4 |
| 20260507225248 | 50 | 19 | 0.0 | 0.0 | 0.00 | 0.16 | 0.00 | 89 | 1013.3 |
| 20260507224727 | 50 | 19 | 0.0 | 0.0 | 0.00 | 0.16 | 0.00 | 89 | 1013.3 |
| 20260507224242 | 50 | 19 | 0.0 | 0.0 | 0.00 | 0.16 | 0.00 | 89 | 1013.4 |
| 20260507223741 | 50 | 19 | 0.0 | 0.0 | 0.00 | 0.16 | 0.00 | 89 | 1013.4 |
| 20260507223239 | 50 | 19 | 0.0 | 1.0 | 0.00 | 0.16 | 0.00 | 89 | 1013.3 |
| 20260507222740 | 50 | 19 | 0.0 | 1.0 | 0.00 | 0.16 | 0.00 | 89 | 1013.3 |
| 20260507222234 | 50 | 19 | 0.0 | 0.0 | 0.00 | 0.16 | 0.00 | 88 | 1013.3 |
| 20260507221734 | 50 | 19 | 0.0 | 0.0 | 0.00 | 0.16 | 0.00 | 88 | 1013.3 |
| 20260507221232 | 50 | 19 | 0.0 | 0.0 | 0.00 | 0.16 | 0.00 | 88 | 1013.3 |
| 20260507220733 | 50 | 19 | 0.0 | 1.0 | 0.00 | 0.16 | 0.00 | 88 | 1013.2 |
| 20260507220231 | 51 | 19 | 0.0 | 1.0 | 0.00 | 0.16 | 0.00 | 88 | 1013.2 |
| 20260507215731 | 51 | 19 | 0.0 | 2.0 | 0.00 | 0.20 | 0.04 | 88 | 1013.2 |
| 20260507215231 | 51 | 19 | 0.0 | 2.0 | 0.00 | 0.20 | 0.04 | 88 | 1013.1 |
| 20260507214759 | 51 | 19 | 0.0 | 2.0 | 0.00 | 0.20 | 0.04 | 88 | 1013.1 |
| 20260507214239 | 51 | 19 | 0.0 | 2.0 | 0.00 | 0.20 | 0.04 | 88 | 1013.1 |
| 20260507213736 | 51 | 19 | 1.0 | 2.0 | 0.00 | 0.20 | 0.04 | 87 | 1013.0 |
| 20260507213252 | 51 | 19 | 0.0 | 2.0 | 0.00 | 0.20 | 0.04 | 87 | 1013.0 |
| 20260507212730 | 51 | 19 | 0.0 | 2.0 | 0.00 | 0.20 | 0.04 | 87 | 1013.0 |
| 20260507212229 | 52 | 19 | 0.0 | 2.0 | 0.00 | 0.20 | 0.04 | 87 | 1012.9 |
| 20260507211728 | 52 | 19 | 0.0 | 0.0 | 0.00 | 0.20 | 0.04 | 87 | 1013.0 |
| 20260507211242 | 52 | 19 | 0.0 | 2.0 | 0.00 | 0.20 | 0.04 | 87 | 1012.9 |
| 20260507210740 | 52 | 19 | 0.0 | 2.0 | 0.00 | 0.20 | 0.04 | 87 | 1013.0 |
| 20260507210240 | 52 | 19 | 0.0 | 0.0 | 0.00 | 0.20 | 0.04 | 86 | 1012.9 |
| 20260507205739 | 52 | 19 | 0.0 | 0.0 | 0.00 | 0.24 | 0.04 | 86 | 1013.0 |
| 20260507205236 | 53 | 19 | 0.0 | 1.0 | 0.00 | 0.24 | 0.04 | 86 | 1013.0 |
| 20260507204735 | 53 | 19 | 0.0 | 4.0 | 0.00 | 0.24 | 0.04 | 86 | 1012.8 |
| 20260507204233 | 53 | 19 | 0.0 | 4.0 | 0.00 | 0.24 | 0.04 | 86 | 1012.7 |
| 20260507203729 | 53 | 18 | 0.0 | 2.0 | 0.00 | 0.24 | 0.04 | 86 | 1012.6 |
| 20260507203228 | 53 | 233 | 0.0 | 0.0 | 0.00 | 0.24 | 0.04 | 85 | 1012.7 |
| 20260507202756 | 53 | 233 | 0.0 | 0.0 | 0.00 | 0.24 | 0.04 | 85 | 1012.7 |
| 20260507202234 | 53 | 233 | 0.0 | 0.0 | 0.00 | 0.24 | 0.04 | 85 | 1012.6 |
| 20260507201750 | 53 | 233 | 0.0 | 0.0 | 0.00 | 0.24 | 0.04 | 85 | 1012.5 |
| 20260507201227 | 54 | 233 | 0.0 | 0.0 | 0.00 | 0.24 | 0.04 | 84 | 1012.4 |
| 20260507200755 | 54 | 233 | 0.0 | 0.0 | 0.00 | 0.24 | 0.04 | 84 | 1012.4 |
| 20260507200250 | 54 | 233 | 0.0 | 0.0 | 0.00 | 0.24 | 0.04 | 83 | 1012.4 |
| 20260507195730 | 54 | 233 | 0.0 | 0.0 | 0.00 | 0.24 | 0.04 | 83 | 1012.3 |
| 20260507195243 | 55 | 233 | 0.0 | 0.0 | 0.00 | 0.24 | 0.04 | 83 | 1012.1 |
| 20260507194725 | 55 | 233 | 0.0 | 0.0 | 0.00 | 0.24 | 0.04 | 82 | 1012.1 |
| 20260507194242 | 55 | 233 | 0.0 | 0.0 | 0.00 | 0.24 | 0.04 | 81 | 1012.1 |
| 20260507193742 | 55 | 233 | 0.0 | 0.0 | 0.00 | 0.24 | 0.04 | 81 | 1012.0 |
| 20260507193259 | 56 | 233 | 0.0 | 0.0 | 0.00 | 0.24 | 0.04 | 81 | 1011.9 |
| 20260507192733 | 56 | 233 | 0.0 | 0.0 | 0.00 | 0.24 | 0.04 | 80 | 1011.8 |
| 20260507192230 | 57 | 233 | 0.0 | 0.0 | 0.00 | 0.24 | 0.04 | 80 | 1011.7 |
| 20260507191800 | 57 | 233 | 0.0 | 0.0 | 0.00 | 0.24 | 0.04 | 79 | 1011.7 |
| 20260507191238 | 57 | 233 | 0.0 | 0.0 | 0.00 | 0.24 | 0.04 | 78 | 1011.6 |
| 20260507190753 | 58 | 233 | 0.0 | 0.0 | 0.00 | 0.24 | 0.04 | 77 | 1011.5 |
| 20260507190231 | 58 | 233 | 0.0 | 0.0 | 0.00 | 0.24 | 0.04 | 76 | 1011.5 |
| 20260507185731 | 59 | 233 | 0.0 | 0.0 | 0.00 | 0.94 | 0.04 | 75 | 1011.4 |
| 20260507185228 | 59 | 233 | 0.0 | 0.0 | 0.00 | 0.94 | 0.04 | 74 | 1011.4 |
| 20260507184746 | 60 | 233 | 0.0 | 0.0 | 0.00 | 0.94 | 0.04 | 74 | 1011.4 |
| 20260507184253 | 60 | 233 | 0.0 | 0.0 | 0.00 | 0.94 | 0.04 | 72 | 1011.3 |
| 20260507183730 | 61 | 233 | 0.0 | 0.0 | 0.00 | 0.94 | 0.04 | 71 | 1011.3 |
| 20260507183232 | 62 | 233 | 0.0 | 0.0 | 0.00 | 0.94 | 0.04 | 70 | 1011.3 |
| 20260507182732 | 63 | 233 | 0.0 | 0.0 | 0.00 | 0.94 | 0.04 | 70 | 1011.2 |
| 20260507182247 | 63 | 233 | 0.0 | 0.0 | 0.00 | 0.94 | 0.04 | 67 | 1011.2 |
| 20260507181741 | 64 | 233 | 0.0 | 1.0 | 0.00 | 0.94 | 0.04 | 65 | 1011.1 |
| 20260507181238 | 64 | 233 | 0.0 | 2.0 | 0.00 | 0.94 | 0.04 | 61 | 1011.0 |
| 20260507180736 | 65 | 233 | 1.0 | 3.0 | 0.00 | 0.94 | 0.04 | 60 | 1011.1 |
| 20260507180238 | 65 | 234 | 1.0 | 3.0 | 0.00 | 0.94 | 0.04 | 60 | 1011.0 |
| 20260507175729 | 65 | 231 | 2.0 | 4.0 | 0.00 | 1.46 | 0.04 | 58 | 1011.0 |
| 20260507175228 | 66 | 232 | 1.0 | 5.0 | 0.00 | 1.46 | 0.04 | 57 | 1010.9 |
| 20260507174729 | 66 | 219 | 1.0 | 5.0 | 0.00 | 1.46 | 0.04 | 56 | 1010.9 |
| 20260507174229 | 66 | 220 | 2.0 | 7.0 | 0.00 | 1.46 | 0.04 | 55 | 1010.7 |
| 20260507173727 | 67 | 229 | 3.0 | 7.0 | 0.00 | 1.46 | 0.04 | 55 | 1010.7 |
| 20260507173302 | 67 | 242 | 3.0 | 5.0 | 0.00 | 1.46 | 0.04 | 55 | 1010.7 |
| 20260507172739 | 68 | 148 | 3.0 | 7.0 | 0.00 | 1.46 | 0.04 | 54 | 1010.7 |
| 20260507172237 | 69 | 167 | 3.0 | 7.0 | 0.00 | 1.46 | 0.04 | 53 | 1010.6 |
| 20260507171732 | 69 | 208 | 3.0 | 6.0 | 0.00 | 1.46 | 0.04 | 51 | 1010.6 |
| 20260507171232 | 69 | 202 | 3.0 | 6.0 | 0.00 | 1.46 | 0.04 | 52 | 1010.6 |
| 20260507170732 | 70 | 227 | 2.0 | 7.0 | 0.00 | 1.46 | 0.04 | 51 | 1010.5 |
| 20260507170231 | 70 | 175 | 3.0 | 7.0 | 0.00 | 1.46 | 0.04 | 50 | 1010.6 |
| 20260507165730 | 70 | 201 | 3.0 | 8.0 | 0.00 | 1.46 | 0.04 | 51 | 1010.5 |
| 20260507165236 | 70 | 238 | 3.0 | 9.0 | 0.00 | 1.46 | 0.04 | 50 | 1010.5 |
| 20260507164755 | 70 | 244 | 5.0 | 9.0 | 0.00 | 1.46 | 0.04 | 51 | 1010.5 |
| 20260507164228 | 70 | 227 | 4.0 | 9.0 | 0.00 | 1.46 | 0.04 | 52 | 1010.6 |
| 20260507163729 | 70 | 206 | 5.0 | 9.0 | 0.00 | 1.46 | 0.04 | 51 | 1010.4 |
| 20260507163229 | 71 | 190 | 5.0 | 9.0 | 0.00 | 1.46 | 0.04 | 51 | 1010.4 |
| 20260507162729 | 71 | 203 | 5.0 | 7.0 | 0.00 | 1.46 | 0.04 | 48 | 1010.4 |
| 20260507162232 | 71 | 244 | 2.0 | 7.0 | 0.00 | 1.46 | 0.04 | 48 | 1010.4 |
| 20260507161752 | 71 | 280 | 2.0 | 8.0 | 0.00 | 1.46 | 0.04 | 47 | 1010.3 |
| 20260507161226 | 71 | 259 | 3.0 | 8.0 | 0.00 | 1.46 | 0.04 | 48 | 1010.4 |
| 20260507160734 | 71 | 221 | 3.0 | 5.0 | 0.00 | 1.46 | 0.04 | 49 | 1010.4 |
| 20260507160232 | 71 | 261 | 1.0 | 6.0 | 0.00 | 1.46 | 0.04 | 48 | 1010.3 |
| 20260507155731 | 70 | 32 | 0.0 | 7.0 | 0.00 | 1.46 | 0.04 | 49 | 1010.4 |
| 20260507155226 | 71 | 250 | 4.0 | 7.0 | 0.00 | 1.46 | 0.04 | 46 | 1010.3 |
| 20260507154813 | 71 | 246 | 3.0 | 8.0 | 0.00 | 1.46 | 0.04 | 48 | 1010.4 |
| 20260507154252 | 71 | 211 | 5.0 | 8.0 | 0.00 | 1.46 | 0.04 | 47 | 1010.4 |
| 20260507153811 | 71 | 190 | 4.0 | 8.0 | 0.00 | 1.46 | 0.04 | 51 | 1010.5 |
| 20260507153251 | 70 | 280 | 2.0 | 8.0 | 0.00 | 1.46 | 0.04 | 51 | 1010.3 |
| 20260507152750 | 71 | 249 | 5.0 | 8.0 | 0.00 | 1.46 | 0.04 | 48 | 1010.4 |
| 20260507152247 | 71 | 155 | 2.0 | 7.0 | 0.00 | 1.46 | 0.04 | 49 | 1010.3 |
| 20260507151747 | 71 | 199 | 3.0 | 9.0 | 0.00 | 1.46 | 0.04 | 51 | 1010.4 |
| 20260507151245 | 71 | 195 | 5.0 | 8.0 | 0.00 | 1.46 | 0.04 | 51 | 1010.4 |
| 20260507150746 | 72 | 168 | 2.0 | 5.0 | 0.00 | 1.46 | 0.04 | 51 | 1010.4 |
| 20260507150246 | 71 | 228 | 1.0 | 7.0 | 0.00 | 1.46 | 0.04 | 46 | 1010.4 |
| 20260507145742 | 70 | 207 | 2.0 | 7.0 | 0.00 | 1.46 | 0.04 | 50 | 1010.5 |
| 20260507145306 | 71 | 217 | 4.0 | 6.0 | 0.00 | 1.46 | 0.04 | 50 | 1010.6 |
| 20260507144742 | 71 | 296 | 3.0 | 6.0 | 0.00 | 1.46 | 0.04 | 50 | 1010.5 |
| 20260507144243 | 70 | 99 | 1.0 | 7.0 | 0.00 | 1.46 | 0.04 | 52 | 1010.5 |
| 20260507143810 | 69 | 121 | 1.0 | 7.0 | 0.00 | 1.46 | 0.04 | 53 | 1010.5 |
| 20260507143245 | 70 | 121 | 3.0 | 7.0 | 0.00 | 1.46 | 0.04 | 51 | 1010.6 |
| 20260507142741 | 71 | 250 | 3.0 | 7.0 | 0.00 | 1.46 | 0.04 | 51 | 1010.6 |
| 20260507142238 | 71 | 295 | 0.0 | 9.0 | 0.00 | 1.46 | 0.04 | 52 | 1010.5 |
| 20260507141736 | 70 | 243 | 6.0 | 9.0 | 0.00 | 1.46 | 0.04 | 50 | 1010.7 |
| 20260507141232 | 69 | 221 | 3.0 | 8.0 | 0.00 | 1.46 | 0.04 | 51 | 1010.6 |
| 20260507140754 | 69 | 331 | 4.0 | 8.0 | 0.00 | 1.46 | 0.04 | 51 | 1010.8 |
| 20260507140232 | 69 | 29 | 4.0 | 8.0 | 0.00 | 1.46 | 0.04 | 52 | 1010.8 |
| 20260507135731 | 70 | 202 | 1.0 | 8.0 | 0.00 | 1.89 | 0.04 | 51 | 1010.8 |
| 20260507135240 | 70 | 171 | 5.0 | 7.0 | 0.00 | 1.89 | 0.04 | 54 | 1010.8 |
| 20260507134739 | 70 | 126 | 2.0 | 9.0 | 0.00 | 1.89 | 0.04 | 53 | 1010.8 |
| 20260507134238 | 70 | 169 | 3.0 | 9.0 | 0.00 | 1.89 | 0.04 | 57 | 1011.0 |
| 20260507133737 | 71 | 165 | 4.0 | 8.0 | 0.00 | 1.89 | 0.04 | 55 | 1011.0 |
| 20260507133234 | 70 | 216 | 5.0 | 8.0 | 0.00 | 1.89 | 0.04 | 54 | 1011.0 |
| 20260507132731 | 70 | 306 | 3.0 | 7.0 | 0.00 | 1.89 | 0.04 | 57 | 1011.0 |
| 20260507132233 | 70 | 233 | 2.0 | 9.0 | 0.00 | 1.89 | 0.04 | 56 | 1011.0 |
| 20260507131733 | 69 | 207 | 4.0 | 10.0 | 0.00 | 1.89 | 0.04 | 59 | 1011.0 |
| 20260507131235 | 67 | 128 | 4.0 | 10.0 | 0.00 | 1.89 | 0.04 | 61 | 1011.1 |
| 20260507130756 | 67 | 223 | 4.0 | 10.0 | 0.00 | 1.89 | 0.04 | 58 | 1011.1 |
| 20260507130236 | 68 | 180 | 3.0 | 10.0 | 0.00 | 1.89 | 0.04 | 59 | 1011.4 |
| 20260507125730 | 68 | 232 | 4.0 | 10.0 | 0.00 | 3.19 | 0.04 | 56 | 1011.2 |
| 20260507125229 | 69 | 238 | 5.0 | 10.0 | 0.00 | 3.19 | 0.04 | 53 | 1011.2 |
| 20260507124757 | 68 | 257 | 5.0 | 8.0 | 0.00 | 3.19 | 0.04 | 56 | 1011.3 |
| 20260507124253 | 69 | 47 | 1.0 | 8.0 | 0.00 | 3.19 | 0.04 | 57 | 1011.3 |
| 20260507123726 | 69 | 247 | 3.0 | 10.0 | 0.00 | 3.19 | 0.04 | 59 | 1011.3 |
| 20260507123226 | 69 | 236 | 7.0 | 10.0 | 0.00 | 3.19 | 0.04 | 56 | 1011.3 |
| 20260507122726 | 68 | 234 | 5.0 | 10.0 | 0.00 | 3.19 | 0.04 | 59 | 1011.3 |
| 20260507122227 | 68 | 150 | 5.0 | 10.0 | 0.00 | 3.19 | 0.04 | 60 | 1011.3 |
| 20260507121741 | 68 | 187 | 5.0 | 11.0 | 0.00 | 3.19 | 0.04 | 64 | 1011.3 |
| 20260507121312 | 68 | 253 | 7.0 | 11.0 | 0.00 | 3.19 | 0.04 | 58 | 1011.3 |
| 20260507120749 | 66 | 180 | 3.0 | 7.0 | 0.00 | 3.19 | 0.04 | 61 | 1011.3 |
| 20260507120250 | 66 | 229 | 4.0 | 11.0 | 0.00 | 3.19 | 0.04 | 58 | 1011.3 |
| 20260507115749 | 67 | 238 | 6.0 | 11.0 | 0.00 | 3.19 | 0.04 | 57 | 1011.4 |
| 20260507115247 | 68 | 132 | 4.0 | 8.0 | 0.00 | 3.19 | 0.04 | 59 | 1011.4 |
| 20260507114724 | 67 | 226 | 2.0 | 11.0 | 0.00 | 3.19 | 0.04 | 57 | 1011.4 |
| 20260507114239 | 66 | 294 | 4.0 | 11.0 | 0.00 | 3.19 | 0.04 | 61 | 1011.4 |
| 20260507113738 | 65 | 134 | 4.0 | 8.0 | 0.00 | 3.19 | 0.04 | 66 | 1011.5 |
| 20260507113238 | 64 | 169 | 1.0 | 3.0 | 0.00 | 3.19 | 0.04 | 63 | 1011.6 |
| 20260507112739 | 65 | 177 | 0.0 | 10.0 | 0.00 | 3.19 | 0.04 | 63 | 1011.6 |
| 20260507112239 | 65 | 157 | 4.0 | 10.0 | 0.00 | 3.19 | 0.04 | 62 | 1011.7 |
| 20260507111735 | 65 | 286 | 2.0 | 7.0 | 0.00 | 3.19 | 0.04 | 63 | 1011.7 |
| 20260507111234 | 65 | 249 | 3.0 | 7.0 | 0.00 | 3.19 | 0.04 | 63 | 1011.7 |
| 20260507110755 | 64 | 256 | 4.0 | 7.0 | 0.00 | 3.19 | 0.04 | 66 | 1011.9 |
| 20260507110235 | 64 | 252 | 2.0 | 9.0 | 0.00 | 3.19 | 0.04 | 65 | 1011.9 |
| 20260507105733 | 64 | 221 | 5.0 | 9.0 | 0.00 | 3.31 | 0.04 | 66 | 1012.1 |
| 20260507105230 | 65 | 199 | 3.0 | 8.0 | 0.00 | 3.31 | 0.04 | 67 | 1012.1 |
| 20260507104724 | 63 | 296 | 3.0 | 5.0 | 0.00 | 3.31 | 0.04 | 69 | 1012.1 |
| 20260507104252 | 63 | 28 | 2.0 | 8.0 | 0.00 | 3.31 | 0.04 | 67 | 1012.2 |
| 20260507103750 | 63 | 346 | 5.0 | 8.0 | 0.00 | 3.31 | 0.04 | 69 | 1012.1 |
| 20260507103227 | 64 | 338 | 3.0 | 6.0 | 0.00 | 3.31 | 0.04 | 68 | 1012.2 |
| 20260507102727 | 64 | 293 | 3.0 | 6.0 | 0.00 | 3.31 | 0.04 | 67 | 1012.3 |
| 20260507102227 | 64 | 317 | 2.0 | 5.0 | 0.00 | 3.31 | 0.04 | 64 | 1012.3 |
| 20260507101745 | 65 | 322 | 3.0 | 4.0 | 0.00 | 3.31 | 0.04 | 67 | 1012.3 |
| 20260507101313 | 63 | 60 | 0.0 | 2.0 | 0.00 | 3.31 | 0.04 | 72 | 1012.3 |
| 20260507100749 | 62 | 145 | 1.0 | 3.0 | 0.00 | 3.31 | 0.04 | 71 | 1012.3 |
| 20260507100306 | 62 | 145 | 2.0 | 3.0 | 0.00 | 3.31 | 0.04 | 70 | 1012.4 |
| 20260507095742 | 62 | 111 | 0.0 | 6.0 | 0.00 | 3.31 | 0.04 | 70 | 1012.3 |
| 20260507095305 | 62 | 179 | 1.0 | 3.0 | 0.00 | 3.31 | 0.04 | 70 | 1012.4 |
| 20260507094802 | 62 | 230 | 0.0 | 5.0 | 0.00 | 3.31 | 0.04 | 71 | 1012.4 |
| 20260507094241 | 62 | 158 | 2.0 | 5.0 | 0.00 | 3.31 | 0.04 | 72 | 1012.5 |
| 20260507093737 | 62 | 196 | 1.0 | 5.0 | 0.00 | 3.31 | 0.04 | 70 | 1012.4 |
| 20260507093235 | 63 | 173 | 2.0 | 4.0 | 0.00 | 3.31 | 0.04 | 70 | 1012.4 |
| 20260507092804 | 64 | 172 | 1.0 | 7.0 | 0.00 | 3.31 | 0.04 | 67 | 1012.3 |
| 20260507092243 | 65 | 166 | 5.0 | 9.0 | 0.00 | 3.31 | 0.04 | 66 | 1012.3 |
| 20260507091738 | 65 | 128 | 2.0 | 9.0 | 0.00 | 3.31 | 0.04 | 67 | 1012.2 |
| 20260507091258 | 65 | 212 | 3.0 | 7.0 | 0.00 | 3.31 | 0.04 | 70 | 1012.3 |
| 20260507090737 | 64 | 129 | 2.0 | 6.0 | 0.00 | 3.31 | 0.04 | 70 | 1012.2 |
| 20260507090236 | 63 | 149 | 1.0 | 9.0 | 0.00 | 3.31 | 0.04 | 69 | 1012.4 |
| 20260507085735 | 63 | 140 | 3.0 | 9.0 | 0.00 | 3.31 | 0.04 | 68 | 1012.3 |
| 20260507085235 | 62 | 140 | 2.0 | 5.0 | 0.00 | 3.31 | 0.04 | 71 | 1012.3 |
| 20260507084754 | 62 | 68 | 2.0 | 4.0 | 0.00 | 3.31 | 0.04 | 68 | 1012.3 |
| 20260507084301 | 61 | 198 | 2.0 | 8.0 | 0.00 | 3.31 | 0.04 | 73 | 1012.3 |
| 20260507083738 | 61 | 140 | 4.0 | 8.0 | 0.00 | 3.31 | 0.04 | 74 | 1012.3 |
| 20260507083232 | 60 | 355 | 2.0 | 5.0 | 0.00 | 3.31 | 0.04 | 74 | 1012.2 |
| 20260507082752 | 60 | 91 | 3.0 | 6.0 | 0.00 | 3.31 | 0.04 | 74 | 1012.3 |
| 20260507082229 | 59 | 9 | 1.0 | 6.0 | 0.00 | 3.31 | 0.04 | 74 | 1012.2 |
| 20260507081728 | 59 | 53 | 3.0 | 5.0 | 0.00 | 3.31 | 0.04 | 75 | 1012.2 |
| 20260507081230 | 59 | 322 | 0.0 | 4.0 | 0.00 | 3.31 | 0.04 | 76 | 1012.2 |
| 20260507080732 | 59 | 9 | 3.0 | 4.0 | 0.00 | 3.31 | 0.04 | 76 | 1012.1 |
| 20260507080230 | 58 | 344 | 1.0 | 5.0 | 0.00 | 3.31 | 0.04 | 76 | 1012.1 |
| 20260507075729 | 59 | 346 | 3.0 | 8.0 | 0.00 | 3.35 | 0.04 | 77 | 1012.1 |
| 20260507075259 | 58 | 53 | 3.0 | 8.0 | 0.00 | 3.35 | 0.04 | 77 | 1012.1 |
| 20260507074738 | 58 | 14 | 2.0 | 5.0 | 0.00 | 3.35 | 0.04 | 77 | 1012.0 |
| 20260507074233 | 58 | 77 | 2.0 | 6.0 | 0.00 | 3.35 | 0.04 | 77 | 1012.0 |
| 20260507073733 | 59 | 74 | 3.0 | 6.0 | 0.00 | 3.35 | 0.04 | 80 | 1012.0 |
| 20260507073233 | 58 | 17 | 2.0 | 6.0 | 0.00 | 3.35 | 0.04 | 79 | 1012.0 |
| 20260507072751 | 58 | 9 | 4.0 | 9.0 | 0.00 | 3.35 | 0.04 | 82 | 1012.0 |
| 20260507072230 | 56 | 350 | 5.0 | 9.0 | 0.00 | 3.35 | 0.04 | 84 | 1012.0 |
| 20260507071731 | 55 | 338 | 5.0 | 8.0 | 0.00 | 3.35 | 0.04 | 84 | 1012.1 |
| 20260507071230 | 55 | 337 | 4.0 | 6.0 | 0.00 | 3.35 | 0.04 | 86 | 1012.1 |
| 20260507070759 | 55 | 319 | 4.0 | 9.0 | 0.00 | 3.35 | 0.04 | 86 | 1012.0 |
| 20260507070239 | 54 | 355 | 4.0 | 9.0 | 0.00 | 3.35 | 0.04 | 86 | 1012.0 |
| 20260507065756 | 54 | 341 | 4.0 | 9.0 | 0.00 | 3.43 | 0.04 | 87 | 1011.9 |
| 20260507065233 | 54 | 355 | 6.0 | 9.0 | 0.00 | 3.43 | 0.04 | 87 | 1012.0 |
| 20260507064733 | 53 | 5 | 5.0 | 9.0 | 0.00 | 3.43 | 0.04 | 87 | 1011.8 |
| 20260507064232 | 53 | 351 | 4.0 | 6.0 | 0.00 | 3.43 | 0.04 | 88 | 1011.7 |
| 20260507063731 | 53 | 29 | 4.0 | 8.0 | 0.00 | 3.43 | 0.04 | 88 | 1011.8 |
| 20260507063229 | 53 | 314 | 5.0 | 9.0 | 0.00 | 3.43 | 0.04 | 88 | 1011.7 |
| 20260507062800 | 52 | 355 | 4.0 | 9.0 | 0.00 | 3.43 | 0.04 | 88 | 1011.8 |
| 20260507062238 | 52 | 355 | 4.0 | 9.0 | 0.00 | 3.43 | 0.04 | 89 | 1011.7 |
| 20260507061738 | 52 | 29 | 3.0 | 10.0 | 0.00 | 3.43 | 0.04 | 89 | 1011.6 |
| 20260507061236 | 52 | 351 | 5.0 | 10.0 | 0.00 | 3.43 | 0.04 | 90 | 1011.6 |